User: anonymous   Login
Location: Blue Mountain Vista Observatory
(40.6992°N, 75.9422°W)
Time: 00:54:20
(UTC-04:00)
Language:

CZ-4C R/B - Orbit

View from above orbital plane
View from above orbital plane
View from above satellite
View from above satellite

Ground track
Ground track

The orbit data is extracted from the following two-line orbital elements,

1 36416U 10009D   16180.86689224 -.00000078  00000-0  13347-4 0  9999
2 36416  63.4423 131.2509 0352410 357.3245   2.5899 13.69498369315986
Epoch (UTC): 28 June 2016 20:48:19
Eccentricity: 0.0352410
inclination: 63.4423°
perigee height: 741 km
apogee height: 1261 km
right ascension of ascending node: 131.2509°
argument of perigee: 357.3245°
revolutions per day: 13.69498369
mean anomaly at epoch: 2.5899°
orbit number at epoch: 31598

The dashed part of the orbit path shows where the satellite is in the earth's shadow,  

DLR